THY2PL LTFM-LTBJ

Flight info

Callsign THY2PL
Flight time N/A
Altitude 31000
Route IVGUS1E/36 IVGUS UM19 OVZOK
Aircraft A20N/M-SDE2E3FGHIRWXY/LB1

Departure

Time 2026-05-04 12:55
Airport İstanbul Airport (LTFM)

Arrival

Time N/A
Airport Adnan Menderes International Airport (LTBJ)
Time Latitude Longitude Altitude Speed Heading
2026-05-04 12:26 41.26414 28.74369 297 ft 0 kts 269°
2026-05-04 12:43 41.26415 28.74375 297 ft 2 kts 269°
2026-05-04 12:43 41.26415 28.74395 297 ft 2 kts 269°
2026-05-04 12:43 41.26416 28.74415 297 ft 2 kts 269°
2026-05-04 12:44 41.26416 28.74435 297 ft 2 kts 269°
2026-05-04 12:44 41.26416 28.74455 297 ft 2 kts 269°
2026-05-04 12:44 41.26417 28.74475 297 ft 2 kts 268°
2026-05-04 12:44 41.26416 28.74495 297 ft 2 kts 291°
2026-05-04 12:45 41.26413 28.74504 297 ft 1 kts 309°
2026-05-04 12:45 41.26408 28.74511 297 ft 0 kts 310°
2026-05-04 12:47 41.26411 28.74507 297 ft 1 kts 310°
2026-05-04 12:48 41.26421 28.74492 297 ft 3 kts 315°
2026-05-04 12:48 41.26445 28.74479 297 ft 4 kts 356°
2026-05-04 12:48 41.26484 28.74476 297 ft 5 kts 359°
2026-05-04 12:48 41.26531 28.74476 297 ft 8 kts 359°
2026-05-04 12:49 41.26599 28.74473 297 ft 10 kts 358°
2026-05-04 12:49 41.26678 28.74469 297 ft 12 kts 359°
2026-05-04 12:49 41.26766 28.74466 297 ft 13 kts 358°
2026-05-04 12:49 41.26860 28.74462 297 ft 13 kts 358°
2026-05-04 12:50 41.26951 28.74487 297 ft 14 kts 50°
2026-05-04 12:50 41.26958 28.74616 297 ft 14 kts 90°
2026-05-04 12:50 41.26960 28.74752 297 ft 14 kts 88°
2026-05-04 12:50 41.26960 28.74895 297 ft 16 kts 90°
2026-05-04 12:51 41.26962 28.75048 297 ft 17 kts 88°
2026-05-04 12:51 41.26964 28.75211 297 ft 18 kts 89°
2026-05-04 12:51 41.26949 28.75361 297 ft 15 kts 139°
2026-05-04 12:51 41.26847 28.75375 297 ft 15 kts 179°
2026-05-04 12:52 41.26741 28.75379 299 ft 14 kts 178°
2026-05-04 12:52 41.26638 28.75384 302 ft 14 kts 178°
2026-05-04 12:52 41.26534 28.75387 304 ft 14 kts 179°
2026-05-04 12:52 41.26437 28.75393 307 ft 11 kts 160°
2026-05-04 12:53 41.26408 28.75473 311 ft 8 kts 91°
2026-05-04 12:53 41.26407 28.75538 314 ft 6 kts 90°
2026-05-04 12:53 41.26408 28.75586 317 ft 4 kts 89°
2026-05-04 12:53 41.26408 28.75634 317 ft 6 kts 87°
2026-05-04 12:54 41.26448 28.75671 317 ft 9 kts 359°
2026-05-04 12:54 41.26663 28.75666 308 ft 68 kts 359°
2026-05-04 12:54 41.27407 28.75652 282 ft 140 kts 359°
2026-05-04 12:54 41.28453 28.75644 811 ft 153 kts
2026-05-04 12:55 41.29484 28.75861 1599 ft 154 kts 19°
2026-05-04 12:55 41.30339 28.76605 2467 ft 151 kts 41°
2026-05-04 12:55 41.31153 28.77496 3043 ft 159 kts 29°
2026-05-04 12:55 41.32171 28.78217 3533 ft 175 kts 26°
2026-05-04 12:56 41.33305 28.78980 4032 ft 193 kts 27°
2026-05-04 12:56 41.34569 28.79855 4483 ft 217 kts 28°
2026-05-04 12:56 41.35948 28.80837 5077 ft 235 kts 28°
2026-05-04 12:56 41.37340 28.82085 5697 ft 253 kts 46°
2026-05-04 12:57 41.38217 28.84104 6580 ft 261 kts 73°
2026-05-04 12:57 41.38408 28.86515 7597 ft 264 kts 87°
2026-05-04 12:57 41.38417 28.88933 8548 ft 268 kts 91°
2026-05-04 12:57 41.37977 28.91352 9451 ft 276 kts 114°
2026-05-04 12:58 41.36814 28.93360 10367 ft 284 kts 138°
2026-05-04 12:58 41.35062 28.94632 10996 ft 303 kts 162°
2026-05-04 12:58 41.32894 28.94917 11494 ft 324 kts 177°
2026-05-04 12:58 41.30596 28.94897 12197 ft 335 kts 180°
2026-05-04 12:59 41.28328 28.94190 13023 ft 345 kts 205°
2026-05-04 12:59 41.26463 28.92220 13936 ft 350 kts 225°
2026-05-04 12:59 41.24873 28.89765 14800 ft 354 kts 228°
2026-05-04 12:59 41.23296 28.87220 15581 ft 358 kts 227°
2026-05-04 13:00 41.21692 28.84691 16366 ft 362 kts 226°
2026-05-04 13:00 41.20026 28.82138 17144 ft 365 kts 226°
2026-05-04 13:00 41.18339 28.79606 17888 ft 368 kts 225°
2026-05-04 13:00 41.16629 28.77071 18632 ft 371 kts 225°
2026-05-04 13:01 41.14917 28.74552 19359 ft 373 kts 225°
2026-05-04 13:01 41.13158 28.71977 20080 ft 376 kts 225°
2026-05-04 13:01 41.11422 28.69444 20771 ft 378 kts 225°
2026-05-04 13:01 41.09658 28.66877 21482 ft 380 kts 225°
2026-05-04 13:02 41.07874 28.64283 22214 ft 380 kts 225°
2026-05-04 13:02 41.06088 28.61692 22915 ft 381 kts 225°
2026-05-04 13:02 41.04305 28.59107 23572 ft 382 kts 226°
2026-05-04 13:02 41.02526 28.56528 24181 ft 384 kts 226°
2026-05-04 13:03 41.00720 28.53912 24764 ft 386 kts 227°
2026-05-04 13:03 40.98924 28.51313 25310 ft 388 kts 227°
2026-05-04 13:03 40.97085 28.48653 25836 ft 391 kts 227°
2026-05-04 13:03 40.95261 28.46015 26329 ft 394 kts 227°
2026-05-04 13:04 40.93400 28.43323 26809 ft 397 kts 227°
2026-05-04 13:04 40.91544 28.40640 27275 ft 400 kts 227°
2026-05-04 13:04 40.89656 28.37918 27730 ft 402 kts 227°
2026-05-04 13:04 40.87751 28.35188 28181 ft 405 kts 227°
2026-05-04 13:05 40.85835 28.32444 28623 ft 407 kts 227°
2026-05-04 13:05 40.83915 28.29683 29049 ft 410 kts 227°
2026-05-04 13:05 40.81981 28.26903 29468 ft 412 kts 227°
2026-05-04 13:05 40.80047 28.24126 29866 ft 415 kts 227°
2026-05-04 13:06 40.78083 28.21311 30257 ft 417 kts 227°
2026-05-04 13:06 40.76118 28.18496 30544 ft 418 kts 227°
2026-05-04 13:06 40.74135 28.15659 30798 ft 419 kts 227°
2026-05-04 13:06 40.72179 28.12863 30976 ft 419 kts 227°
2026-05-04 13:07 40.70181 28.10010 30994 ft 420 kts 227°
2026-05-04 13:07 40.66208 28.04346 31010 ft 420 kts 227°
2026-05-04 13:08 40.62257 27.98724 31018 ft 420 kts 227°
2026-05-04 13:08 40.58306 27.93111 31021 ft 420 kts 227°
2026-05-04 13:09 40.54327 27.87468 31022 ft 420 kts 227°
2026-05-04 13:09 40.50372 27.81871 31022 ft 420 kts 227°
2026-05-04 13:10 40.46405 27.76268 31023 ft 421 kts 227°
2026-05-04 13:10 40.42350 27.70554 31031 ft 437 kts 227°
2026-05-04 13:11 40.37947 27.65032 31035 ft 441 kts 218°
2026-05-04 13:11 40.32657 27.61026 31050 ft 443 kts 204°
2026-05-04 13:12 40.26716 27.58852 31066 ft 445 kts 191°
2026-05-04 13:12 40.20615 27.57657 31073 ft 446 kts 190°
2026-05-04 13:13 40.14473 27.56501 31076 ft 446 kts 190°
2026-05-04 13:13 40.08356 27.55336 31077 ft 446 kts 190°
2026-05-04 13:14 40.02231 27.54164 31077 ft 446 kts 190°
2026-05-04 13:14 39.96067 27.52984 31077 ft 446 kts 190°
2026-05-04 13:15 39.89952 27.51816 31077 ft 446 kts 190°
2026-05-04 13:15 39.83926 27.50672 31077 ft 446 kts 190°
2026-05-04 13:16 39.77825 27.49513 30854 ft 436 kts 190°
2026-05-04 13:16 39.74903 27.48959 30594 ft 425 kts 190°
2026-05-04 13:16 39.71996 27.48406 30325 ft 422 kts 190°
2026-05-04 13:16 39.69083 27.47854 30049 ft 420 kts 190°
2026-05-04 13:17 39.66205 27.47313 29734 ft 418 kts 190°
2026-05-04 13:17 39.63373 27.46782 29355 ft 415 kts 190°
2026-05-04 13:17 39.60511 27.46245 28939 ft 413 kts 190°
2026-05-04 13:17 39.57681 27.45714 28494 ft 410 kts 190°
2026-05-04 13:18 39.54850 27.45182 27996 ft 406 kts 190°
2026-05-04 13:18 39.52088 27.44663 27558 ft 402 kts 190°
2026-05-04 13:18 39.49356 27.44149 27143 ft 397 kts 190°
2026-05-04 13:18 39.46636 27.43638 26738 ft 392 kts 190°
2026-05-04 13:19 39.43948 27.43135 26339 ft 387 kts 190°
2026-05-04 13:19 39.41303 27.42640 25950 ft 383 kts 190°
2026-05-04 13:19 39.38688 27.42096 25553 ft 378 kts 192°
2026-05-04 13:19 39.36114 27.41371 25146 ft 375 kts 195°
2026-05-04 13:20 39.33599 27.40474 24663 ft 373 kts 198°
2026-05-04 13:20 39.31094 27.39533 24251 ft 370 kts 198°
2026-05-04 13:20 39.28663 27.38622 23872 ft 366 kts 197°
2026-05-04 13:20 39.26201 27.37700 23461 ft 363 kts 197°
2026-05-04 13:21 39.23783 27.36795 23048 ft 361 kts 197°
2026-05-04 13:21 39.21373 27.35893 22630 ft 359 kts 197°
2026-05-04 13:21 39.18965 27.34994 22227 ft 357 kts 197°
2026-05-04 13:21 39.16591 27.34100 21845 ft 354 kts 197°
2026-05-04 13:22 39.14240 27.33210 21471 ft 351 kts 197°
2026-05-04 13:22 39.11890 27.32325 21098 ft 348 kts 197°
2026-05-04 13:22 39.09589 27.31463 20730 ft 346 kts 197°